Buena Park, CA

12:55 PM PST on February 13, 2016 (GMT -0800)
Fullerton Municipal

Weather History for KFUL - January, 2013

Change the Weather History Date:

Saturday, January 19, 2013

  Actual Average Record
Temperature  
Mean Temperature 65 °F 56 °F  
Max Temperature 83 °F 68 °F 84 °F (2005)
Min Temperature 46 °F 45 °F 39 °F (2007)
Degree Days  
Heating Degree Days 0 9  
Month to date heating degree days 187 171  
Since 1 July heating degree days 446 611  
Cooling Degree Days 0 0  
Month to date cooling degree days 1 0  
Year to date cooling degree days 1 0  
Growing Degree Days 14 (Base 50)    
Moisture  
Dew Point 24 °F    
Average Humidity 28    
Maximum Humidity 48    
Minimum Humidity 7    
Precipitation  
Precipitation 0.00 in 0.10 in 1.10 in (2010)
Month to date precipitation 0.04 2.03  
Year to date precipitation 0.04 2.03  
Since 1 July precipitation 3.35  
Snow  
Snow 0.00 in - - ()
Month to date snowfall 0.0  
Year to date snowfall 0.0  
Snow Depth 0.00 in    
Sea Level Pressure  
Sea Level Pressure 30.10 in    
Wind  
Wind Speed 2 mph (ESE)    
Max Wind Speed 14 mph    
Max Gust Speed 17 mph    
Visibility 10 miles    
Events      
T = Trace of Precipitation, MM = Missing Value Source: NWS Daily Summary

Daily Weather History Graph

Daily Weather History Graph

Search for Another Location

Airport or City:

Trip Planner

Search our weather history database for the weather conditions in past years. The results will help you decide how hot, cold, wet, or windy it might be!

Date:

Astronomy

Jan. 19, 2013 Rise Set
Actual Time 6:55 AM PST 5:10 PM PST
Civil Twilight 6:28 AM PST 5:37 PM PST
Nautical Twilight 5:58 AM PST 6:07 PM PST
Astronomical Twilight 5:28 AM PST 6:37 PM PST
Moon 11:36 AM PST (1/19) 12:38 AM PST (1/19)
Length of Visible Light 11h 08m
Length of Day
10h 14m
First Quarter, 58% of the Moon is Illuminated
Jan 19
First Quarter
Jan 26
Full
Feb 3
Last Quarter
Feb 9
New
Feb 17
First Quarter

Hourly Weather History & Observations

Time (PST) Temp. Dew Point Humidity Pressure Visibility Wind Dir Wind Speed Gust Speed Precip Events Conditions
12:53 AM 51.1 °F 30.9 °F 46% 30.09 in 10.0 mi Calm Calm - N/A   Clear
1:53 AM 48.9 °F 28.9 °F 46% 30.09 in 10.0 mi Calm Calm - N/A   Clear
2:53 AM 53.1 °F 24.1 °F 32% 30.09 in 10.0 mi Calm Calm - N/A   Clear
3:53 AM 48.9 °F 27.0 °F 43% 30.09 in 10.0 mi Calm Calm - N/A   Clear
4:53 AM 46.9 °F 27.0 °F 46% 30.09 in 10.0 mi Calm Calm - N/A   Clear
5:53 AM 46.9 °F 27.0 °F 46% 30.11 in 10.0 mi Calm Calm - N/A   Clear
6:53 AM 46.0 °F 27.0 °F 47% 30.12 in 10.0 mi Calm Calm - N/A   Clear
7:53 AM 53.1 °F 27.0 °F 37% 30.14 in 10.0 mi Calm Calm - N/A   Clear
8:53 AM 63.0 °F 30.9 °F 30% 30.15 in 10.0 mi Calm Calm - N/A   Clear
9:53 AM 77.0 °F 14.0 °F 9% 30.17 in 10.0 mi ESE 9.2 mph - N/A   Clear
10:53 AM 75.9 °F 21.9 °F 13% 30.15 in 10.0 mi Variable 3.5 mph - N/A   Clear
11:53 AM 80.1 °F 14.0 °F 8% 30.12 in 10.0 mi ESE 6.9 mph - N/A   Clear
12:53 PM 82.0 °F 12.0 °F 7% 30.09 in 10.0 mi East 6.9 mph - N/A   Clear
1:53 PM 82.9 °F 12.9 °F 7% 30.07 in 10.0 mi NNE 3.5 mph - N/A   Clear
2:53 PM 82.0 °F 21.0 °F 10% 30.06 in 10.0 mi SSE 6.9 mph - N/A   Clear
3:53 PM 81.0 °F 19.9 °F 10% 30.06 in 10.0 mi South 3.5 mph - N/A   Clear
4:53 PM 78.1 °F 21.0 °F 12% 30.07 in 10.0 mi Calm Calm - N/A   Clear
5:53 PM 70.0 °F 27.0 °F 20% 30.08 in 10.0 mi Calm Calm - N/A   Clear
6:53 PM 64.0 °F 27.0 °F 25% 30.09 in 10.0 mi Calm Calm - N/A   Clear
7:53 PM 63.0 °F 23.0 °F 22% 30.10 in 10.0 mi Calm Calm - N/A   Clear
8:53 PM 59.0 °F 26.1 °F 28% 30.11 in 10.0 mi Calm Calm - N/A   Clear
9:53 PM 55.9 °F 25.0 °F 30% 30.12 in 10.0 mi Calm Calm - N/A   Clear
10:53 PM 54.0 °F 27.0 °F 35% 30.12 in 10.0 mi Calm Calm - N/A   Clear
11:53 PM 53.1 °F 27.0 °F 37% 30.12 in 10.0 mi Calm Calm - N/A   Clear